Probability
0 0 0 0 0 3 3 0 3 3 3 6 0 0 0 0 0 0 0 0 0 0 0 0 0 0 0 0 0 0 0 0 0 0 0 0 0 0 0 0 0 0 0
0 0 0 0 6 16 23 23 26 23 13 10 3 0 0 0 0 0 0 0 0 0 0 0 0 0 0 0 0 0 0 0 0 0 0 0 0 0 0 0 0 0 0
0 0 3 6 16 29 65 87 87 65 29 13 0 0 0 0 0 0 0 0 0 0 0 0 0 0 0 0 0 0 0 0 0 0 0 0 0 0 0 0 0 0 0
0 6 16 23 48 65 87 90 87 81 58 26 13 6 3 0 0 0 0 0 0 0 0 0 0 0 0 0 0 0 0 0 0 0 0 0 0 0 0 0 0 0 0
3 19 26 45 61 87 87 87 65 65 45 35 32 26 6 3 0 0 0 0 0 0 0 0 0 0 0 0 0 0 0 0 0 0 0 0 0 0 0 0 0 0 0
16 23 29 61 74 74 74 71 58 55 48 39 19 26 23 10 6 0 0 0 0 0 0 0 0 0 0 0 0 0 0 0 0 0 0 0 0 0 0 0 0 0 0
16 26 26 42 52 61 65 71 71 84 55 61 48 35 32 16 6 0 0 0 0 0 0 0 0 0 0 0 0 0 0 0 0 0 0 0 0 0 0 0 0 0 0
19 19 23 42 55 55 52 65 77 81 61 68 68 45 35 16 3 3 0 0 0 0 0 0 0 0 0 0 0 0 0 0 0 0 0 0 0 0 0 0 0 0 0
6 16 13 32 52 65 65 77 87 81 74 71 58 42 29 29 16 0 0 0 0 0 0 0 0 0 0 0 0 0 0 0 0 0 0 0 0 0 0 0 0 0 0
0 3 13 26 29 48 61 74 84 87 77 55 45 35 16 13 10 0 0 0 0 0 0 0 0 0 0 0 0 0 0 0 0 0 0 0 0 0 0 0 0 0 0
0 0 3 10 19 29 32 52 68 71 65 55 29 23 10 6 0 0 0 0 0 0 0 0 0 0 0 0 0 0 0 0 0 0 0 0 0 0 0 0 0 0 0
0 0 0 6 10 26 32 29 45 48 48 35 23 10 6 3 0 0 0 0 0 0 0 0 0 0 0 0 0 0 0 0 0 0 0 0 0 0 0 0 0 0 0
0 0 0 0 0 6 32 35 32 39 39 26 23 6 3 3 0 0 0 0 0 0 0 0 0 0 0 0 0 0 0 0 0 0 0 0 0 0 0 0 0 0 0
0 0 0 0 0 0 6 19 35 32 32 23 13 10 3 3 0 0 0 0 0 0 0 0 0 0 0 0 0 0 0 0 0 0 0 0 0 0 0 0 0 0 0
3 0 0 0 0 0 0 3 6 19 23 13 13 10 3 3 0 0 0 0 0 0 0 0 0 0 0 0 0 0 0 0 0 0 0 0 0 0 0 0 0 0 0
3 0 0 0 0 0 0 0 3 6 19 16 10 6 3 0 0 0 0 0 0 0 0 0 0 0 0 0 0 0 0 0 0 0 0 0 0 0 0 0 0 0 0
0 0 0 0 0 0 0 0 0 3 3 3 3 0 0 0 0 0 0 0 0 0 0 0 0 0 0 0 3 0 0 0 0 0 0 0 0 0 0 0 0 0 0
0 0 0 0 0 0 0 0 0 0 0 0 0 0 0 0 0 0 0 0 0 0 0 0 0 0 0 0 0 0 0 0 0 0 0 0 0 0 0 0 0 0 0
0 0 0 0 0 0 0 0 0 0 0 0 0 0 0 0 0 0 0 0 0 0 0 0 0 0 0 0 0 0 0 0 0 0 0 0 0 0 0 0 0 0 0
0 0 0 0 0 0 0 0 0 0 0 0 0 0 0 0 0 0 0 0 0 0 0 0 0 0 0 0 0 0 0 0 0 0 0 0 0 0 0 0 0 0 0
0 0 0 0 0 0 0 0 0 0 0 0 0 0 0 0 0 0 0 0 0 0 0 0 0 0 0 0 0 0 0 0 0 0 0 0 0 0 0 0 0 0 0
0 0 0 0 0 0 0 0 0 0 0 0 0 0 0 0 0 0 0 0 0 0 0 0 0 0 0 0 0 0 0 0 0 0 0 0 0 0 0 0 0 0 0
0 0 0 0 0 0 0 0 0 0 0 0 0 0 0 0 0 0 0 0 0 0 0 0 0 0 0 0 0 0 0 0 0 0 0 0 0 0 0 0 0 0 0
0 0 0 0 0 0 0 0 0 0 0 0 0 0 0 0 0 0 0 0 0 0 0 0 0 0 0 0 0 0 0 0 0 0 0 0 0 0 0 0 0 0 0
0 0 0 0 0 0 0 0 0 0 0 0 0 0 0 0 0 0 0 0 0 0 0 0 0 0 0 0 0 0 0 0 0 0 0 0 0 0 0 0 0 0 0
0 0 0 0 0 0 0 0 0 0 0 0 0 0 0 0 0 0 0 0 0 0 0 0 0 0 0 0 0 0 0 0 0 0 0 0 0 0 0 0 0 0 0
Height
5854 5855 5855 5857 5859 5859 5859 5859 5859 5859 5859 5859 5859 5859 5859 5858 5857 5856 5855 5854 5853 5852 5851 5850 5848 5847 5846 5845 5844 5843 5843 5842 5841 5841 5842 5844 5845 5846 5847 5848 5849 5851 5852
5847 5847 5849 5850 5852 5853 5854 5853 5853 5854 5854 5854 5854 5854 5854 5854 5853 5852 5851 5849 5848 5846 5845 5844 5842 5841 5840 5839 5839 5838 5837 5837 5837 5837 5837 5839 5842 5843 5844 5845 5846 5847 5848
5838 5840 5842 5843 5846 5847 5848 5848 5848 5848 5848 5848 5848 5848 5848 5848 5848 5847 5846 5844 5842 5841 5839 5838 5836 5835 5834 5833 5833 5832 5832 5832 5832 5832 5833 5834 5836 5838 5840 5841 5842 5843 5844
5831 5833 5834 5837 5839 5841 5841 5841 5841 5841 5842 5842 5842 5842 5842 5843 5842 5841 5840 5838 5836 5834 5833 5831 5830 5829 5828 5827 5826 5826 5826 5826 5826 5827 5828 5830 5832 5834 5836 5837 5838 5839 5841
5824 5825 5827 5830 5832 5833 5833 5834 5834 5835 5836 5836 5837 5837 5837 5837 5836 5834 5833 5831 5829 5828 5826 5825 5824 5822 5821 5820 5820 5819 5819 5820 5820 5821 5822 5824 5826 5829 5831 5833 5835 5836 5837
5817 5819 5820 5822 5824 5825 5826 5827 5828 5829 5830 5831 5832 5832 5832 5831 5830 5828 5827 5825 5823 5821 5820 5818 5817 5815 5814 5813 5812 5812 5812 5813 5814 5815 5817 5819 5821 5823 5826 5828 5831 5832 5834
5810 5811 5813 5814 5816 5818 5818 5819 5821 5823 5825 5827 5827 5827 5826 5826 5824 5823 5821 5819 5817 5815 5813 5812 5810 5808 5807 5806 5806 5806 5805 5805 5807 5809 5811 5813 5815 5818 5820 5823 5826 5828 5831
5803 5804 5805 5807 5808 5810 5812 5813 5816 5819 5821 5822 5822 5822 5821 5820 5818 5817 5815 5813 5811 5809 5807 5805 5803 5802 5801 5800 5800 5800 5799 5799 5801 5803 5805 5807 5809 5812 5815 5818 5821 5823 5826
5796 5798 5798 5799 5800 5803 5805 5809 5812 5815 5817 5817 5817 5816 5815 5814 5813 5811 5809 5808 5805 5803 5801 5799 5798 5796 5795 5795 5794 5794 5794 5795 5796 5798 5800 5802 5804 5807 5809 5812 5815 5818 5821
5789 5791 5792 5793 5794 5798 5801 5805 5809 5811 5811 5811 5810 5809 5808 5808 5807 5805 5803 5802 5799 5797 5795 5793 5792 5791 5790 5790 5789 5789 5789 5790 5792 5793 5794 5797 5799 5801 5803 5806 5809 5812 5815
5784 5785 5785 5787 5790 5796 5800 5802 5804 5805 5805 5805 5804 5803 5802 5801 5800 5799 5797 5795 5793 5791 5790 5788 5787 5786 5786 5785 5785 5785 5785 5786 5787 5788 5790 5792 5793 5795 5797 5799 5802 5805 5809
5781 5780 5782 5786 5790 5794 5797 5799 5799 5800 5799 5798 5797 5797 5796 5795 5793 5792 5790 5788 5787 5785 5784 5783 5782 5781 5781 5780 5780 5781 5781 5782 5782 5783 5785 5786 5788 5789 5790 5792 5795 5798 5802
5778 5780 5782 5785 5788 5791 5793 5794 5795 5794 5794 5792 5791 5790 5789 5788 5786 5785 5784 5782 5780 5779 5778 5778 5777 5776 5776 5776 5776 5776 5777 5777 5778 5779 5779 5781 5782 5783 5784 5785 5788 5791 5793
5776 5779 5781 5784 5786 5788 5789 5790 5790 5789 5788 5787 5785 5784 5782 5781 5780 5779 5777 5776 5775 5774 5773 5772 5771 5771 5770 5770 5770 5771 5771 5772 5773 5773 5774 5775 5776 5777 5778 5779 5781 5783 5785
5773 5775 5777 5780 5781 5783 5784 5785 5785 5784 5783 5782 5780 5777 5775 5774 5774 5773 5772 5771 5770 5768 5767 5767 5766 5765 5765 5764 5764 5765 5766 5766 5767 5768 5769 5770 5771 5772 5773 5774 5775 5776 5778
5770 5772 5774 5775 5777 5778 5779 5779 5779 5778 5777 5776 5773 5770 5769 5769 5769 5769 5768 5766 5765 5763 5762 5761 5760 5759 5759 5759 5759 5759 5759 5760 5761 5762 5763 5764 5765 5766 5767 5768 5769 5770 5771
5769 5770 5772 5773 5773 5774 5774 5774 5774 5773 5772 5771 5769 5768 5766 5766 5765 5764 5762 5760 5759 5757 5756 5755 5754 5753 5753 5752 5752 5752 5753 5753 5754 5755 5756 5757 5758 5760 5761 5762 5763 5764 5765
5769 5770 5771 5771 5772 5771 5771 5772 5771 5770 5769 5768 5766 5765 5763 5761 5760 5758 5756 5754 5752 5750 5749 5748 5747 5747 5746 5746 5746 5745 5746 5747 5748 5749 5750 5751 5752 5753 5754 5756 5757 5758 5760
5771 5771 5772 5772 5771 5771 5771 5770 5769 5768 5766 5764 5763 5761 5759 5757 5755 5752 5750 5748 5746 5744 5742 5741 5740 5740 5739 5739 5739 5739 5739 5740 5741 5742 5743 5744 5745 5746 5748 5749 5751 5752 5754
5773 5773 5773 5772 5772 5771 5770 5768 5767 5765 5763 5761 5759 5757 5755 5752 5749 5747 5744 5742 5740 5738 5736 5735 5734 5734 5733 5733 5732 5732 5733 5733 5734 5735 5735 5736 5737 5739 5740 5742 5744 5746 5748
5774 5774 5773 5772 5771 5770 5768 5766 5765 5763 5760 5758 5755 5753 5750 5747 5744 5741 5739 5737 5734 5733 5731 5730 5729 5728 5727 5726 5726 5726 5726 5726 5727 5727 5728 5729 5730 5731 5733 5735 5737 5739 5741
5776 5774 5773 5771 5770 5769 5767 5765 5763 5760 5757 5755 5752 5749 5746 5743 5740 5737 5734 5732 5730 5728 5726 5725 5723 5722 5721 5719 5718 5717 5717 5717 5718 5719 5720 5721 5722 5724 5726 5728 5730 5732 5734
5776 5774 5773 5771 5769 5767 5765 5763 5760 5757 5754 5751 5748 5745 5742 5738 5735 5732 5730 5727 5726 5724 5722 5720 5718 5715 5713 5711 5709 5708 5707 5707 5707 5708 5710 5712 5714 5716 5719 5721 5723 5725 5727
5776 5774 5772 5770 5768 5766 5763 5760 5757 5754 5750 5747 5744 5741 5737 5734 5731 5728 5726 5724 5722 5719 5717 5715 5712 5709 5706 5703 5700 5697 5696 5695 5696 5697 5700 5703 5706 5709 5711 5714 5716 5718 5720
5776 5774 5772 5769 5767 5764 5761 5758 5755 5751 5748 5744 5740 5737 5733 5730 5727 5725 5722 5720 5718 5715 5713 5710 5707 5703 5699 5695 5691 5688 5685 5684 5685 5687 5690 5694 5698 5702 5705 5707 5710 5712 5714
5777 5775 5772 5769 5766 5763 5760 5756 5753 5749 5746 5742 5738 5734 5731 5728 5725 5722 5720 5717 5715 5712 5709 5706 5703 5699 5695 5690 5685 5682 5679 5677 5678 5680 5684 5688 5692 5696 5699 5702 5705 5707 5709
Wind_Speed
30 28 27 25 21 19 18 18 18 18 18 18 18 17 17 17 16 16 15 14 15 16 18 19 20 20 20 21 21 20 19 19 20 21 19 18 16 17 17 16 17 17 18
32 30 28 26 23 20 20 20 20 20 20 20 20 19 16 15 14 15 15 15 17 18 19 21 22 22 23 23 23 23 21 20 20 21 20 19 17 16 16 16 16 17 18
32 30 28 26 24 22 21 22 22 22 22 21 20 18 16 14 14 15 17 18 19 20 21 22 23 24 25 26 26 26 24 21 21 21 21 20 19 17 16 15 15 15 17
31 30 28 28 27 25 24 25 25 24 23 23 20 18 16 15 16 17 19 20 21 22 22 23 24 25 27 27 27 26 25 23 22 22 22 22 21 19 17 16 15 15 16
30 30 29 29 29 28 28 28 27 25 23 21 19 18 17 18 19 20 21 22 22 23 23 23 24 25 27 27 27 27 26 24 23 24 24 24 23 22 20 18 16 15 15
28 29 29 29 30 31 31 30 27 24 21 20 18 17 18 20 21 21 22 22 23 23 23 24 24 25 25 26 27 27 27 25 23 24 25 26 26 24 22 20 18 16 15
27 28 27 28 29 31 32 28 25 22 20 18 17 18 20 21 21 21 21 22 22 23 23 23 24 23 24 25 25 26 28 26 24 23 24 25 26 27 26 23 20 18 17
23 24 25 26 27 28 28 24 22 18 16 16 17 19 21 22 21 21 21 21 21 22 22 23 22 22 22 22 22 23 23 23 23 23 22 23 24 26 27 26 24 22 20
22 22 22 23 24 23 22 19 17 15 15 16 19 20 21 21 21 21 21 20 20 20 21 21 21 21 20 19 19 19 20 21 21 21 21 22 23 24 26 27 26 25 24
23 24 26 26 25 22 19 16 14 15 16 18 20 21 21 21 20 21 21 21 20 19 20 20 20 19 18 17 16 16 17 18 20 22 22 22 23 24 24 26 28 28 28
24 25 25 24 20 15 13 12 12 14 17 19 21 21 22 21 21 21 21 21 21 20 19 19 19 19 18 16 15 15 16 16 18 20 20 21 22 23 25 25 27 28 30
16 14 14 14 11 9 9 10 13 16 19 21 21 21 22 21 21 22 22 22 21 21 20 19 19 19 18 17 16 15 16 16 17 18 20 21 22 23 25 27 28 29 31
9 8 5 5 6 7 10 12 15 18 20 22 22 22 22 21 21 22 22 22 21 20 20 19 19 20 20 19 18 17 17 17 17 18 18 20 21 21 23 26 29 30 32
7 7 7 7 8 10 12 15 17 19 20 21 22 23 22 19 18 19 19 20 19 19 19 20 19 20 20 20 21 21 20 19 19 20 20 20 20 20 21 23 26 29 32
10 10 11 11 12 12 14 16 18 19 20 22 23 24 21 17 16 17 18 19 19 19 20 20 20 20 20 21 22 23 23 23 22 22 22 22 21 20 20 20 22 27 30
8 9 11 12 13 13 15 16 17 19 20 22 23 22 19 16 16 18 19 20 20 20 20 20 20 20 20 21 22 23 24 24 24 24 24 23 23 21 20 20 21 23 27
5 6 8 10 10 11 12 13 15 16 17 18 19 19 17 17 18 18 20 21 22 22 22 21 20 21 21 21 21 22 23 24 24 24 24 24 24 23 22 21 21 22 23
2 3 3 4 5 7 8 9 11 13 14 16 17 17 18 18 19 20 21 22 22 22 23 22 21 21 21 21 22 22 22 23 24 24 24 24 25 24 24 23 22 22 21
4 3 1 1 3 5 7 10 12 14 15 16 17 17 18 19 19 20 21 21 21 21 22 21 20 19 19 19 20 20 21 23 24 24 24 25 26 26 25 24 24 23 23
4 2 1 3 5 7 9 11 12 14 14 15 16 16 17 18 18 19 20 20 20 20 19 19 19 18 18 19 20 20 21 22 22 23 24 25 26 26 26 26 25 25 24
4 3 4 6 7 8 10 11 13 14 15 16 16 17 17 18 19 19 20 19 19 18 18 18 18 18 19 21 22 23 23 24 24 24 25 25 26 26 26 26 26 26 25
6 7 7 8 9 10 11 13 14 15 16 17 17 17 18 19 19 19 18 18 17 17 17 18 19 21 22 24 25 26 27 27 28 27 27 27 26 26 26 25 25 26 26
10 10 10 10 11 12 12 13 15 16 17 17 18 18 19 19 19 18 17 16 16 17 18 20 21 23 24 26 28 29 29 30 30 30 29 28 27 26 26 26 26 26 26
11 11 12 12 13 14 14 15 16 17 18 18 18 18 18 17 16 15 15 15 16 17 19 20 21 22 24 25 26 27 28 29 30 30 30 29 28 26 26 26 25 26 26
12 12 13 14 15 15 15 15 16 16 16 16 16 16 15 14 13 13 13 14 15 17 18 18 19 20 21 22 22 22 23 23 24 24 25 25 25 24 24 24 23 23 24
13 14 14 15 15 15 16 17 17 16 15 15 14 13 13 12 12 12 13 13 14 15 15 16 17 17 17 17 15 14 13 12 13 15 18 19 19 20 20 20 20 20 21
Wind_Direction
271 272 275 278 278 278 278 277 276 273 273 273 273 276 278 280 283 287 288 287 290 290 290 288 286 282 279 281 283 282 279 275 270 264 259 251 242 239 243 243 241 237 233
266 265 268 270 272 271 272 271 271 271 273 273 275 278 280 280 282 285 288 290 289 289 288 286 285 281 278 277 277 279 276 272 266 260 255 250 242 235 239 243 241 234 231
261 261 261 264 265 265 267 267 268 269 271 273 276 279 282 283 285 288 291 293 293 291 288 285 282 278 275 274 274 275 272 267 263 256 250 246 242 235 235 239 239 232 229
257 255 255 258 259 260 261 265 266 269 271 274 277 281 284 285 288 291 292 293 293 291 288 284 280 276 274 272 270 270 267 262 257 250 244 242 241 236 233 236 236 232 229
255 252 250 248 250 252 253 255 259 263 267 272 276 281 284 289 293 294 294 294 293 291 288 285 281 277 273 269 266 265 262 256 252 248 244 241 239 236 233 233 235 231 227
254 249 247 246 248 248 246 250 251 254 259 266 273 279 285 290 292 293 293 293 292 290 287 284 281 277 272 266 263 260 258 252 249 247 244 240 237 233 231 231 232 230 225
246 245 244 244 246 245 244 244 244 248 255 262 270 278 284 287 290 291 292 292 290 288 285 284 281 278 272 266 262 260 260 252 249 247 243 238 237 234 230 228 228 229 226
235 237 238 239 242 242 244 243 241 247 255 264 272 278 282 285 288 290 291 291 289 287 285 283 280 276 271 266 262 260 258 254 250 245 240 238 238 234 230 225 226 228 228
227 229 233 233 234 234 234 232 237 247 256 265 272 277 281 285 288 288 288 289 289 288 286 283 279 274 270 265 263 258 255 253 247 244 242 241 239 238 234 228 227 228 229
227 225 224 223 219 221 223 222 237 248 259 267 272 277 281 283 286 287 286 286 287 288 285 282 277 272 268 264 261 258 253 251 248 246 244 243 245 242 236 234 231 228 227
233 231 225 221 212 211 219 227 241 255 264 268 273 277 279 280 283 288 289 287 286 285 282 279 275 272 269 264 260 259 255 251 249 247 246 245 246 246 241 240 235 232 229
237 241 234 224 217 213 221 236 249 258 264 269 273 277 279 282 285 289 291 291 287 284 280 276 273 270 268 265 262 261 257 253 251 249 247 246 247 248 246 242 240 238 231
244 249 245 239 237 230 237 249 255 259 264 271 275 279 280 282 286 290 292 291 288 284 280 277 273 270 268 265 263 262 260 257 254 251 249 249 248 252 251 245 242 242 237
256 245 250 260 255 248 247 252 260 265 270 275 280 284 280 280 286 290 293 292 288 284 283 279 275 272 269 266 263 261 260 259 258 256 253 254 253 254 253 250 246 244 241
260 255 253 258 258 256 256 260 264 268 273 279 283 282 284 288 290 291 293 292 290 286 283 280 277 274 272 269 266 263 261 260 259 259 258 257 256 254 252 250 248 246 244
249 249 255 259 261 262 266 268 270 274 277 282 285 290 294 298 293 293 294 293 291 289 285 282 278 276 274 272 269 265 263 261 260 259 259 259 258 255 252 251 251 251 246
234 244 252 257 261 264 271 278 282 283 284 287 293 299 298 296 295 295 295 293 292 291 288 284 281 279 276 274 271 268 266 264 262 261 260 260 259 258 255 253 253 252 249
181 224 248 264 274 280 281 282 285 290 293 295 296 298 298 298 298 296 296 295 293 291 288 286 284 282 279 274 271 268 266 264 263 262 261 260 259 257 255 253 252 250 250
94 99 110 280 279 282 284 286 289 294 296 297 297 298 299 299 299 298 299 298 296 294 291 288 285 282 279 275 272 268 266 263 262 261 261 260 259 257 255 253 251 249 250
74 54 339 299 294 295 296 297 299 300 301 300 300 302 303 303 302 301 301 299 297 294 292 289 286 281 277 275 273 270 267 265 263 261 260 258 256 255 255 254 252 251 250
43 3 333 322 318 316 314 312 311 310 309 307 306 307 307 307 306 305 303 300 297 295 292 290 288 284 280 278 276 273 270 268 264 261 259 257 256 255 254 253 253 252 252
18 2 351 342 334 328 323 319 316 313 311 309 308 307 307 308 307 306 303 300 297 295 294 292 291 288 286 282 279 276 272 269 266 262 259 257 255 254 253 252 251 250 250
12 4 357 349 342 335 330 326 322 319 315 311 309 307 307 308 307 306 304 301 299 298 297 296 295 293 290 287 284 280 274 269 265 262 258 255 252 251 250 249 248 247 247
13 7 1 354 349 343 339 335 330 325 321 317 314 312 312 313 313 311 309 307 305 304 302 302 301 299 298 295 290 285 278 272 265 259 255 251 248 248 249 249 248 246 245
13 9 4 358 354 350 347 344 339 335 331 327 324 323 324 325 324 322 318 315 313 311 311 312 313 312 310 307 302 294 285 275 263 252 246 243 243 245 245 245 244 244 241
11 7 4 1 359 357 356 353 352 352 350 347 346 346 348 348 345 339 334 330 326 325 325 327 329 328 326 325 320 312 300 277 254 239 232 231 233 235 237 240 241 240 240